Location: Bernadets
(43.3537°N, 0.3167°E)
Time: 13:51:43
(UTC+00:00)

Okean O Rocket - Pass Details

Date: 24 October 2021
Orbit: 623 x 644 km, 98.2° (Epoch: 07 December)

Event Time Altitude Azimuth Distance (km) Brightness Sun altitude
Rises 19:10:48 0° 200° (SSW) 2,891 5.2 -24.2°
Reaches altitude 10° 19:13:26 10° 217° (SW) 1,991 4.5 -24.6°
Maximum altitude 19:16:43 21° 266° (W) 1,415 4.1 -25.2°
Drops below altitude 10° 19:20:02 10° 316° (NW) 2,009 4.8 -25.8°
Sets 19:22:43 0° 333° (NNW) 2,925 5.5 -26.3°
